Home > Time Zones > World Clock > Weather > Japan > Kobe > Past weeks

Flag for Japan Weather past 2 weeks in Kobe, Japan

Now
52 °F

Clear.


Feels Like: 51 °F
Forecast: 51 / 67 °F
Wind: 3 mph from East

Location: Kansai International Airport


UV Index: 7 (High)

Visibility: 10 mi


Pressure: 30.15 "Hg

Humidity: 67%

Dew point: 41 °F

Location of KobeLocation

Historic Weather in Kobe

°F

Kobe temperature yesterday

Maximum temperature yesterday: 68 °F (at 3:30 PM)
Minimum temperature yesterday: 50 °F (at 5:00 AM)
Average temperature yesterday: 59 °F

Past Weeks' High & Low Weather Summary

 TemperatureHumidityPressure
High72 °F (Apr 17, 1:00 PM)100% (Apr 22, 12:00 AM)30.18 "Hg (Apr 22, 12:00 AM)
Low45 °F (Apr 11, 4:30 AM)21% (Apr 12, 5:00 PM)29.83 "Hg (Apr 18, 1:30 PM)
Average57 °F63%30.01 "Hg
* Reported Apr 9 3:00 AM — Apr 24 3:30 AM, Kobe, Weather by CustomWeather, © 2014

Note: Actual official high and low records may vary slightly from our data, if they occured in-between our weather recording intervals... More about our weather records

Advertising

Historic Weather Conditions — Data for Previous 24 hours

 ConditionsComfort  
Time TempWeatherWind HumidityBarometerVisibility
3:30 AM
Apr 24
52 °FClear.3 mph72%30.15 "Hg10 mi
3:00 AM54 °FClear.3 mph67%30.15 "Hg10 mi
2:30 AM54 °FClear.5 mph67%30.12 "Hg10 mi
2:00 AM54 °FClear.2 mph58%30.12 "Hg10 mi
1:30 AM54 °FClear.2 mph63%30.12 "Hg10 mi
1:00 AM54 °FClear.2 mph67%30.12 "Hg10 mi
12:30 AM54 °FClear.3 mph72%30.12 "Hg10 mi
12:00 AM55 °FPassing clouds.7 mph67%30.12 "HgN/A
11:30 PM
Apr 23
54 °FClear.10 mph54%30.12 "Hg10 mi
11:00 PM55 °FClear.10 mph59%30.09 "Hg10 mi
10:30 PM59 °FClear.13 mph48%30.09 "Hg10 mi
10:00 PM59 °FClear.14 mph51%30.09 "Hg10 mi
9:30 PM59 °FClear.17 mph51%30.07 "Hg10 mi
9:00 PM61 °FClear.15 mph52%30.07 "Hg10 mi
8:30 PM61 °FClear.15 mph39%30.07 "Hg10 mi
8:00 PM61 °FPassing clouds.13 mph48%30.07 "HgN/A
7:30 PM63 °FPassing clouds.7 mph37%30.04 "HgN/A
7:00 PM61 °FPassing clouds.7 mph45%30.04 "HgN/A
6:30 PM63 °FPassing clouds.6 mph39%30.01 "HgN/A
6:00 PM63 °FPassing clouds.8 mph49%30.01 "HgN/A
5:30 PM66 °FPassing clouds.6 mph28%30.01 "HgN/A
5:00 PM68 °FPassing clouds.5 mph26%30.01 "HgN/A
4:30 PM68 °FPassing clouds.6 mph26%29.98 "HgN/A
4:00 PM68 °FPassing clouds.6 mph24%29.98 "HgN/A
3:30 PM68 °FPassing clouds.6 mph28%29.98 "HgN/A
3:00 PM64 °FPassing clouds.5 mph49%29.98 "HgN/A
2:30 PM63 °FPassing clouds.6 mph49%29.98 "HgN/A
2:00 PM66 °FPassing clouds.6 mph37%30.01 "HgN/A
1:30 PM66 °FPassing clouds.6 mph37%30.01 "HgN/A
1:00 PM66 °FPassing clouds.8 mph37%30.01 "HgN/A
12:30 PM66 °FPassing clouds.7 mph35%30.04 "HgN/A
12:00 PM64 °FPassing clouds.8 mph40%30.04 "HgN/A
11:30 AM64 °FPassing clouds.7 mph43%30.04 "HgN/A
11:00 AM59 °FPassing clouds.8 mph63%30.04 "HgN/A
10:30 AM59 °FPassing clouds.5 mph63%30.04 "HgN/A
10:00 AM57 °FSunny.6 mph63%30.04 "Hg10 mi
9:30 AM57 °FSunny.3 mph59%30.04 "Hg10 mi
9:00 AM57 °FSunny.2 mph63%30.04 "Hg10 mi
8:30 AM55 °FSunny.2 mph72%30.04 "Hg10 mi
8:00 AM54 °FSunny.3 mph72%30.04 "Hg10 mi
7:30 AM52 °FPassing clouds.2 mph77%30.04 "HgN/A
7:00 AM52 °FPassing clouds.2 mph77%30.04 "HgN/A
6:30 AM50 °FPassing clouds.3 mph82%30.01 "HgN/A
6:00 AM50 °FPassing clouds.2 mph82%30.01 "HgN/A
5:30 AM50 °FPassing clouds.3 mph82%30.01 "HgN/A
5:00 AM50 °FPassing clouds.3 mph82%29.98 "HgN/A
4:30 AM52 °FPassing clouds.1 mph82%29.98 "HgN/A
4:00 AM52 °FPassing clouds.1 mph77%29.98 "HgN/A
Weather by CustomWeather, © 2014

See weather overview